This demonstration page uses our WeatherBlox Daily Observations layout. Learn more.

Left ArrowRight Arrow

Hourly Observations for January 25, 2022

Temp ( °F °C ) Dew Point ( °F °C ) Humidity (%) Winds ( mph kmh ) Pressure ( in mb ) Visibility ( mi km ) Precip ( " mm )
12:53 am 00:53 Cloudy 30 -1.1 24 -4.4 79 79 WNW 18 30 29.93 1014 10 16 0.00 0.00
1:53 am 01:53 Cloudy 29 -1.7 22 -5.6 75 75 WNW 14 22 29.96 1014 10 16 0.00 0.00
2:53 am 02:53 Cloudy 28 -2.2 21 -6.1 75 75 NW 13 20 29.99 1016 10 16 0.00 0.00
3:53 am 03:53 Cloudy 27 -2.8 19 -7.2 72 72 NNW 9 15 30.01 1016 10 16 0.00 0.00
4:53 am 04:53 Cloudy 26 -3.3 18 -7.8 71 71 NNW 8 13 30.04 1017 10 16 0.00 0.00
5:53 am 05:53 Cloudy 25 -3.9 15 -9.4 66 66 N 8 13 30.08 1019 10 16 0.00 0.00
6:19 am 06:19 Cloudy 25 -3.9 14 -10 63 63 NNW 10 17 30.12 1020 10 16 0.00 0.00
6:53 am 06:53 Partly Cloudy 22 -5.6 13 -10.6 68 68 NNW 6 9 30.12 1020 10 16 0.00 0.00
7:53 am 07:53 Sunny 21 -6.1 14 -10 74 74 NW 7 11 30.16 1021 10 16 0.00 0.00
8:53 am 08:53 Sunny 21 -6.1 15 -9.4 78 78 NW 8 13 30.19 1022 9 14 0.00 0.00
9:53 am 09:53 Sunny 23 -5 15 -9.4 72 72 NNW 7 11 30.22 1023 10 16 0.00 0.00
10:53 am 10:53 Mostly Sunny 25 -3.9 16 -8.9 69 69 NW 7 11 30.24 1024 10 16 0.00 0.00
11:53 am 11:53 Mostly Cloudy 26 -3.3 16 -8.9 66 66 NW 8 13 30.25 1024 10 16 0.00 0.00
12:03 pm 12:03 Partly Cloudy 25 -3.9 15 -9.4 66 66 Calm 30.27 1025 10 16 0.00 0.00
12:10 pm 12:10 Mostly Cloudy 28 -2.2 17 -8.3 63 63 undefined N/A 30.27 1025 10 16 0.00 0.00
12:45 pm 12:45 Partly Cloudy 26 -3.3 14 -10 60 60 NW 5 7 30.25 1024 10 16 0.00 0.00
12:53 pm 12:53 Partly Cloudy 27 -2.8 15 -9.4 61 61 WNW 7 11 30.23 1024 10 16 0.00 0.00
1:53 pm 13:53 Cloudy 27 -2.8 13 -10.6 55 55 NW 7 11 30.23 1024 10 16 0.00 0.00
2:53 pm 14:53 Cloudy 28 -2.2 13 -10.6 53 53 WNW 7 11 30.23 1024 10 16 0.00 0.00
3:53 pm 15:53 Mostly Cloudy 27 -2.8 12 -11.1 53 53 NNW 5 7 30.25 1024 10 16 0.00 0.00
4:53 pm 16:53 Mostly Sunny 28 -2.2 11 -11.7 49 49 NW 10 17 30.27 1025 10 16 0.00 0.00
5:53 pm 17:53 Mostly Clear 25 -3.9 11 -11.7 55 55 NW 8 13 30.29 1026 10 16 0.00 0.00
6:53 pm 18:53 Clear 21 -6.1 11 -11.7 65 65 NW 5 7 30.31 1026 10 16 0.00 0.00
7:53 pm 19:53 Clear 21 -6.1 11 -11.7 65 65 NNW 7 11 30.33 1027 10 16 0.00 0.00
8:53 pm 20:53 Clear 19 -7.2 8 -13.3 62 62 NW 3 6 30.35 1028 10 16 0.00 0.00
9:53 pm 21:53 Clear 17 -8.3 5 -15 59 59 NW 7 11 30.39 1029 10 16 0.00 0.00
10:53 pm 22:53 Clear 15 -9.4 0 -17.8 51 51 NW 7 11 30.41 1030 10 16 0.00 0.00
11:53 pm 23:53 Clear 13 -10.6 1 -17.2 59 59 WNW 9 15 30.41 1030 10 16 0.00 0.00

Powered by AerisWeather